This demonstration page uses our WeatherBlox Daily Observations layout. Learn more.

Hourly Observations for February 28, 2020

Temp ( °F °C ) Dew Point ( °F °C ) Humidity (%) Winds ( mph kmh ) Pressure ( in mb ) Visibility ( mi km ) Precip ( " mm )
12:15 am 00:15 Clear 32 0 26 -3.1 80 80 W 10 17 30.27 1025 10 16.0934 0 0
12:35 am 00:35 Clear 32 0 27 -3 80 80 W 13 20 30.26 1025 10 16.0934 0 0
12:55 am 00:55 Clear 32 0 27 -3 80 80 W 13 20 30.26 1025 10 16.0934 0 0
1:15 am 01:15 Clear 32 0.1 27 -3 80 80 W 14 22 30.25 1025 10 16.0934 0 0
1:35 am 01:35 Clear 33 0.3 27 -3 79 79 W 13 20 30.25 1024 10 16.0934 0 0
1:55 am 01:55 Clear 32 0.2 27 -3 79 79 W 12 19 30.25 1024 10 16.0934 0 0
2:15 am 02:15 Clear 33 0.4 26 -3.2 77 77 W 14 22 30.24 1024 10 16.0934 0 0
2:35 am 02:35 Clear 32 0.2 26 -3.5 76 76 W 14 22 30.24 1024 10 16.0934 0 0
2:55 am 02:55 Clear 33 0.3 26 -3.6 75 75 W 13 20 30.24 1024 10 16.0934 0 0
3:15 am 03:15 Clear 32 0 25 -3.8 76 76 W 13 20 30.24 1024 10 16.0934 0 0
3:35 am 03:35 Clear 32 0 25 -4 75 75 W 13 20 30.24 1024 10 16.0934 0 0
3:55 am 03:55 Clear 32 -0.2 24 -4.2 75 75 W 12 19 30.23 1024 10 16.0934 0 0
4:15 am 04:15 Clear 31 -0.8 24 -4.5 76 76 W 12 19 30.23 1024 10 16.0934 0 0
4:35 am 04:35 Clear 31 -0.7 24 -4.5 76 76 W 14 22 30.23 1024 10 16.0934 0 0
4:55 am 04:55 Clear 30 -0.9 24 -4.7 76 76 W 10 17 30.24 1024 10 16.0934 0 0
5:15 am 05:15 Clear 31 -0.8 23 -4.8 75 75 W 9 15 30.24 1024 10 16.0934 0 0
5:35 am 05:35 Clear 30 -1.1 23 -4.9 76 76 WNW 10 17 30.25 1024 10 16.0934 0 0
5:55 am 05:55 Clear 30 -1.3 23 -5 76 76 WNW 7 11 30.26 1025 10 16.0934 0 0
6:15 am 06:15 Clear 29 -1.5 23 -5 77 77 W 8 13 30.26 1025 10 16.0934 0 0
6:35 am 06:35 Clear 29 -1.5 23 -5.1 77 77 W 7 11 30.26 1025 10 16.0934 0 0
6:55 am 06:55 Clear 28 -2 22 -5.4 78 78 W 8 13 30.26 1025 10 16.0934 0 0
7:15 am 07:15 Sunny 27 -2.6 22 -5.5 81 81 W 8 13 30.28 1025 10 16.0934 0 0
7:35 am 07:35 Sunny 28 -2.5 22 -5.5 80 80 W 9 15 30.28 1025 10 16.0934 0 0
7:55 am 07:55 Sunny 29 -1.5 23 -5 77 77 W 9 15 30.27 1025 10 16.0934 0 0
8:15 am 08:15 Sunny 30 -0.9 24 -4.5 77 77 W 10 17 30.26 1025 10 16.0934 0 0
8:35 am 08:35 Sunny 32 0.2 26 -3.6 76 76 W 9 15 30.26 1025 10 16.0934 0 0
8:55 am 08:55 Sunny 35 1.8 26 -3.2 70 70 W 10 17 30.25 1024 10 16.0934 0 0
9:15 am 09:15 Sunny 37 2.6 27 -2.6 69 69 W 13 20 30.24 1024 10 16.0934 0 0
9:35 am 09:35 Sunny 38 3.1 27 -2.8 66 66 W 14 22 30.24 1024 10 16.0934 0 0
9:55 am 09:55 Sunny 39 3.7 28 -2.3 65 65 W 15 24 30.24 1024 10 16.0934 0 0
10:15 am 10:15 Sunny 41 4.8 29 -1.6 64 64 W 13 20 30.24 1024 10 16.0934 0 0
10:35 am 10:35 Sunny 44 6.6 30 -0.9 59 59 NW 15 24 30.22 1023 10 16.0934 0 0
10:55 am 10:55 Sunny 46 7.5 31 -0.8 56 56 NW 14 22 30.22 1023 10 16.0934 0 0
11:15 am 11:15 Sunny 46 8 28 -2.1 49 49 WNW 15 24 30.22 1023 10 16.0934 0 0
11:35 am 11:35 Sunny 47 8.3 29 -1.7 50 50 NW 16 26 30.21 1023 10 16.0934 0 0
11:55 am 11:55 Sunny 48 8.8 31 -0.7 52 52 NW 17 28 30.2 1023 10 16.0934 0 0
12:15 pm 12:15 Sunny 50 9.9 31 -0.3 49 49 NW 15 24 30.19 1022 10 16.0934 0 0
12:35 pm 12:35 Sunny 51 10.5 31 -0.6 46 46 NNW 15 24 30.19 1022 10 16.0934 0 0
12:55 pm 12:55 Sunny 52 11 30 -1.3 43 43 NW 18 30 30.18 1022 10 16.0934 0 0
1:15 pm 13:15 Sunny 53 11.4 30 -0.9 43 43 NNW 18 30 30.17 1022 10 16.0934 0 0
1:35 pm 13:35 Sunny 53 11.5 28 -2.1 39 39 NW 18 30 30.17 1022 10 16.0934 0 0
1:55 pm 13:55 Sunny 53 11.6 28 -2.1 39 39 NW 17 28 30.16 1021 10 16.0934 0 0
2:15 pm 14:15 Sunny 53 11.8 27 -2.7 37 37 NW 18 30 30.16 1021 10 16.0934 0 0
2:35 pm 14:35 Sunny 54 12 27 -3 35 35 NW 17 28 30.15 1021 10 16.0934 0 0
2:55 pm 14:55 Sunny 54 12 25 -3.9 33 33 NNW 16 26 30.15 1021 10 16.0934 0 0
3:15 pm 15:15 Sunny 54 12 24 -4.2 32 32 NNW 15 24 30.16 1021 10 16.0934 0 0
3:35 pm 15:35 Sunny 54 12 24 -4.3 32 32 NNW 16 26 30.16 1021 10 16.0934 0 0
3:55 pm 15:55 Sunny 54 12 24 -4.3 32 32 NW 17 28 30.17 1022 10 16.0934 0 0
4:15 pm 16:15 Sunny 54 12 23 -4.9 31 31 NW 13 20 30.17 1022 10 16.0934 0 0
4:35 pm 16:35 Sunny 54 12 25 -3.8 33 33 NW 15 24 30.17 1022 10 16.0934 0 0
4:55 pm 16:55 Sunny 53 11.6 24 -4.5 32 32 NW 13 20 30.17 1022 10 16.0934 0 0
5:15 pm 17:15 Sunny 52 11.3 25 -4.1 34 34 NW 10 17 30.17 1022 10 16.0934 0 0
5:35 pm 17:35 Sunny 51 10.5 26 -3.5 38 38 NW 7 11 30.19 1022 10 16.0934 0 0
5:55 pm 17:55 Sunny 49 9.7 26 -3.6 39 39 WNW 6 9 30.21 1023 10 16.0934 0 0
6:15 pm 18:15 Sunny 47 8.4 26 -3.5 43 43 WNW 8 13 30.22 1023 10 16.0934 0 0
6:35 pm 18:35 Clear 44 6.4 26 -3.2 51 51 W 7 11 30.24 1024 10 16.0934 0 0
6:55 pm 18:55 Clear 43 6.2 26 -3.5 50 50 W 7 11 30.25 1024 10 16.0934 0 0
7:15 pm 19:15 Clear 41 5.2 25 -3.7 53 53 WNW 6 9 30.26 1025 10 16.0934 0 0
7:35 pm 19:35 Clear 40 4.6 25 -4.1 54 54 WNW 6 9 30.25 1024 10 16.0934 0 0
7:55 pm 19:55 Clear 41 4.9 24 -4.4 51 51 NNW 6 9 30.25 1024 10 16.0934 0 0
8:15 pm 20:15 Clear 38 3.2 24 -4.4 58 58 Calm 30.27 1025 10 16.0934 0 0
8:35 pm 20:35 Clear 37 2.9 24 -4.5 59 59 Calm 30.27 1025 10 16.0934 0 0
8:55 pm 20:55 Clear 35 1.9 23 -4.9 61 61 Calm 30.28 1025 10 16.0934 0 0
9:15 pm 21:15 Clear 35 1.6 24 -4.5 64 64 Calm 30.28 1025 10 16.0934 0 0
9:35 pm 21:35 Clear 33 0.3 24 -4.6 70 70 Calm 30.29 1026 10 16.0934 0 0
9:55 pm 21:55 Clear 33 0.6 23 -5 66 66 Calm 30.29 1026 10 16.0934 0 0
10:15 pm 22:15 Clear 32 0.2 24 -4.7 70 70 SSW 5 7 30.28 1026 10 16.0934 0 0
10:35 pm 22:35 Clear 32 0.2 23 -4.9 69 69 SSW 7 11 30.28 1026 10 16.0934 0 0
10:55 pm 22:55 Clear 36 2.2 24 -4.5 62 62 SSW 6 9 30.26 1025 10 16.0934 0 0
11:15 pm 23:15 Clear 36 2.1 23 -4.9 60 60 SSW 7 11 30.26 1025 10 16.0934 0 0
11:35 pm 23:35 Clear 35 1.5 23 -4.8 63 63 SW 6 9 30.25 1024 10 16.0934 0 0
11:55 pm 23:55 Clear 34 1 24 -4.6 67 67 SW 6 9 30.25 1024 10 16.0934 0 0

Powered by AerisWeather